This demonstration page uses our WeatherBlox Daily Observations layout. Learn more.

Left ArrowRight Arrow

34.16533, -84.80231

Hourly Observations for July 26, 2016

Temp ( °F °C ) Dew Point ( °F °C ) Humidity (%) Winds ( mph kmh ) Pressure ( in mb ) Visibility ( mi km ) Precip ( " mm )
12:06 am 00:06 Cloudy with Heavy Rain 75 23.9 73 22.8 94 94 Calm 30.06 1018 2 3 0.14 3.56
12:24 am 00:24 Cloudy with Heavy Rain 75 23.9 74 23.3 96 96 N 7 11 30.06 1018 3 4 0.36 9.14
12:32 am 00:32 Cloudy with Rain 75 23.9 74 23.3 96 96 N 6 9 30.06 1018 3 5 0.39 9.91
12:53 am 00:53 Cloudy with Rain 75 23.9 74 23.3 96 96 Calm 30.05 1018 4 6 0.43 10.92
1:34 am 01:34 Mostly Cloudy 75 23.9 74 23.3 96 96 Calm 30.06 1018 7 11 0.05 1.27
1:53 am 01:53 Partly Cloudy 75 23.9 73 22.8 94 94 Calm 30.02 1017 8 13 0.05 1.27
2:53 am 02:53 Mostly Clear 73 22.8 72 22.2 96 96 Calm 30.01 1016 9 14 0.00 0.00
3:53 am 03:53 Clear 73 22.8 72 22.2 96 96 Calm 30.00 1016 7 11 0.00 0.00
4:53 am 04:53 Clear 72 22.2 71 21.7 97 97 Calm 29.99 1016 7 11 0.00 0.00
5:21 am 05:21 Partly Cloudy with Mist and Fog 72 22.2 72 22.2 100 100 Calm 30.03 1017 4 6 0.00 0.00
5:29 am 05:29 Mostly Cloudy with Mist and Fog 72 22.2 71 21.7 97 97 Calm 30.03 1017 4 6 0.00 0.00
5:41 am 05:41 Partly Cloudy with Mist and Fog 72 22.2 71 21.7 97 97 NE 3 6 30.03 1017 5 8 0.00 0.00
5:53 am 05:53 Mostly Clear with Mist and Fog 72 22.2 71 21.7 97 97 Calm 30.00 1016 5 8 0.00 0.00
6:53 am 06:53 Sunny with Mist and Fog 72 22.2 71 21.7 97 97 Calm 30.03 1017 6 10 0.00 0.00
7:53 am 07:53 Sunny with Mist and Fog 73 22.8 72 22.2 96 96 Calm 30.05 1018 5 8 0.00 0.00
8:53 am 08:53 Sunny 77 25 74 23.3 90 90 Calm 30.05 1018 10 16 0.00 0.00
9:53 am 09:53 Sunny 81 27.2 74 23.3 79 79 Calm 30.05 1018 10 16 0.00 0.00
10:53 am 10:53 Sunny 84 28.9 73 22.8 70 70 Calm 30.05 1018 10 16 0.00 0.00
11:53 am 11:53 Sunny 86 30 72 22.2 63 63 Calm 30.04 1017 10 16 0.00 0.00
12:53 pm 12:53 Sunny 88 31.1 72 22.2 59 59 VRB 3 6 30.02 1017 10 16 0.00 0.00
1:53 pm 13:53 Sunny 90 32.2 71 21.7 54 54 Calm 30.01 1016 10 16 0.00 0.00
2:53 pm 14:53 Mostly Sunny 91 32.8 71 21.7 52 52 VRB 6 9 29.99 1016 10 16 0.00 0.00
3:53 pm 15:53 Sunny 94 34.4 71 21.7 48 48 VRB 7 11 29.97 1015 10 16 0.00 0.00
4:53 pm 16:53 Sunny 94 34.4 68 20 43 43 VRB 5 7 29.95 1014 10 16 0.00 0.00
5:53 pm 17:53 Mostly Sunny 93 33.9 68 20 44 44 VRB 5 7 29.93 1014 10 16 0.00 0.00
6:53 pm 18:53 Sunny 93 33.9 68 20 44 44 S 5 7 29.93 1013 10 16 0.00 0.00
7:53 pm 19:53 Sunny 87 30.6 71 21.7 59 59 S 3 6 29.94 1014 10 16 0.00 0.00
8:53 pm 20:53 Clear 79 26.1 73 22.8 82 82 Calm 29.95 1014 10 16 0.00 0.00
9:53 pm 21:53 Clear 76 24.4 72 22.2 88 88 Calm 29.96 1015 10 16 0.00 0.00
10:53 pm 22:53 Mostly Clear 81 27.2 71 21.7 72 72 SSW 6 9 30.00 1016 10 16 0.00 0.00
11:53 pm 23:53 Clear 80 26.7 70 21.1 71 71 Calm 30.01 1016 10 16 0.00 0.00

Powered by AerisWeather